Weather in Osino-Gay

Russia / Tambov Oblast     53°02′01″N   42°23′56″E
temp.,
°C
wind,
m/s
gust,
m/s
humid.,
%
clouds,
%
prec.,
mm/h
press.,
hPa
HPBL,
m
13 august, sat
sat1300:00+20ne36610 0.0 1022100
03:00+19ene34710 0.0 102261
06:00+19ene347061 0.0 1022104
09:00+25ene3350100 0.0 1021527
12:00+29ene2139100 0.0 10201411
15:00+31nnw3234100 0.0 10192293
18:00+28nnw354083 0.0 1018128
21:00+23ne4742100 0.0 1019118
14 august, sun
sun1400:00+21e3747100 0.0 1019143
03:00+20e365498 0.0 1019103
06:00+19ene3661100 0.0 1019157
09:00+25e4544100 0.0 1019550
12:00+28ese4435100 0.0 10191491
15:00+28ese4434100 0.0 10181740
18:00+27se4537100 0.0 1017805
21:00+22e484690 0.0 1018161
15 august, mon
mon1500:00+21e5135898 0.0 1018334
03:00+19e4106394 0.0 1019235
06:00+19e4105680 0.0 1020264
09:00+25ese683495 0.0 1020632
12:00+29ese66305 0.0 10201859
15:00+30e66265 0.0 10192402
18:00+28e56281 0.0 10191414
21:00+22e513422 0.0 1021296
16 august, tue
tue1600:00+20e512514 0.0 1021283
03:00+17e412630 0.0 1022245
06:00+18e513631 0.0 1022355
09:00+25e710355 0.0 10221070
12:00+29e78277 0.0 10211887
15:00+30e672535 0.0 10202306
18:00+28e6729100 0.0 10191193
21:00+24e61338100 0.0 1021374
17 august, wed
wed1700:00+21e51344100 0.0 1021332
03:00+18e4115085 0.0 1021230
06:00+18e41051100 0.0 1021215
09:00+24ese5835100 0.0 1021472
12:00+29ese6625100 0.0 10201876
15:00+30ese7723100 0.0 10181996
18:00+28ese5726100 0.0 10181067
21:00+23e4113695 0.0 1019261